Location: ??????????
(54.7560°N, 39.1389°E)
Time: 14:31:00
(UTC+00:00)

Cosmos 1758 - Pass Details

Date: 19 May 2025
Orbit: 490 x 512 km, 82.5° (Epoch: 19 June)

Event Time Altitude Azimuth Distance (km) Brightness Sun altitude
Rises 21:41:43 0° 350° (N) 2,647 8.4 -15.1°
Reaches altitude 10° 21:43:53 10° 354° (N) 1,754 7.2 -15.1°
Maximum altitude 21:47:43 63° 76° (ENE) 580 3.5 -15.0°
Enters shadow 21:49:57 23° 152° (SSE) 1,127 4.4 -15.0°
